STARLINK-11607, 63140

Orbit data source: Space-Track

STARLINK-11607, 63140 is a payload satellite owned by SpaceX/Seattle (US) in LEO that was launched on Mon, 03 Mar 2025 UTC via an FALCON 9 launch vehicle from the Air Force Eastern Test Range (AFETR). Payload-class satellites include a variety of spacecraft equipped with specific instruments for various scientific and technological missions. These include communications satellites like Starlink; space stations such as the ISS; scientific satellites like the Hubble; Earth observation satellites from companies like Planet Labs, Umbra, and HawkEye 360; GPS; miniature CubeSats for education and research; and military/defense satellites.

Loading next visibility...
Identifier
63140, 2025-043J
Orbit
LEO
Country
Flag of USUS
Related business
Manufacturer
SpaceX/Seattle
Mission
Operational Commercial Communications
Bus & Motor
STARLINK V2MD, Unknown motor
Mass
960 kg wet, ~910 kg dry
Launch date (UTC)
2025-03-03 (10 months ago)
Launch vehicle
FALCON 9
Launch site
Air Force Eastern Test Range (AFETR)
Object type
Payload
Rocket body
Debris
Shape & HBR
Box + 2 Pan, 18.1 m
Radar Cross Section
36.964 m², Large (>1 m²)

Expand to show TLE details & history
Last TLE update: 11 hours ago

TLE from 11 hours ago
0 STARLINK-11607
1 63140U 25043J   25352.10332064  .00237669  00000-0  18026-2 0  9996
2 63140  42.9999  22.2296 0001333 270.6730  89.3985 15.70848504 46640
Epoch: 2025-12-18T02:28Z
TLE epoch observation values (Epoch: 2025-12-18T02:28:46.903Z)
Latitude
-0°
Longitude
-101.92946°
Altitude
356.233 km
Speed
7.697 km/s
True Right ascension
01h 28m 55s
True Declination
0° 00' 00"
Sunlit
Object was in full shadow at epoch
Visualization orbit readout
Latitude
Unknown
Longitude
Unknown
Altitude
Unknown
Speed
Unknown
Apparent Right ascension
Unknown
Apparent Declination
Unknown
Sunlit
N/A
Visualization observer readout
Local Sidereal Time
11:53:06
Azimuth
Unknown
Elevation
Unknown
Doppler factor
Unknown
Orbital elements
Apogee altitude
359.35 km
Perigee altitude
357.554 km
Semi-major axis
6,736.589 km
Eccentricity
0.00013
Inclination
42.9999°
RAAN
22.2296°
Arg. of periapsis
270.673°
True anomaly
89.41377°
Mean anomaly
89.3985°
Eccentric anomaly
89.40614°
Mean motion
3.92539 °/min
Orbital period
91.71 mins
BSTAR
0.0018026
Loading maneuver chart data...
Computing Atmospheric mass density...
Loading historical data...
Loading historical data...
Loading historical data...
Loading historical data...
Loading historical data...
Loading historical data...
Loading historical data...

Documentation

Showing up to 5 results
|